Location: Pinhead Observatory
(34.4473°N, 118.1985°W)
Time: 07:31:32
(UTC-07:00)

CZ-4C R/B - Visible Passes

Search period start: 19 April 2014 00:00
Search period end: 29 April 2014 00:00
Orbit: 799 x 1204 km, 63.4° (Epoch: 18 April)

Date Brightness Start Highest point End Pass type
(mag) Time Alt. Az. Time Alt. Az. Time Alt. Az.
19 Apr 4.2 04:26:50 10° NNW 04:33:19 39° NE 04:40:13 10° ESE visible
19 Apr 2.2 19:46:21 10° SSW 19:51:46 75° ESE 19:57:37 10° NE visible
19 Apr 5.0 21:37:20 10° W 21:41:00 17° NW 21:44:51 10° N visible
20 Apr 5.3 03:13:16 10° N 03:17:39 17° NE 03:22:13 10° E visible
20 Apr 3.0 05:00:08 10° NNW 05:07:13 79° ENE 05:14:46 10° SE visible
20 Apr 3.5 20:20:13 10° SW 20:25:28 45° NW 20:31:08 10° NNE visible
21 Apr 4.4 03:45:48 10° NNW 03:52:01 33° NE 03:58:36 10° ESE visible
21 Apr 3.0 05:33:59 10° NW 05:40:49 51° WSW 05:48:03 10° S visible
21 Apr 4.9 20:55:28 10° W 20:59:36 21° NW 21:04:01 10° N visible
22 Apr 5.4 02:32:33 10° N 02:36:12 15° NE 02:39:58 10° ENE visible
22 Apr 3.2 04:18:59 10° NNW 04:25:59 66° ENE 04:33:28 10° SE visible
23 Apr 4.6 03:04:49 10° N 03:10:41 28° NE 03:16:53 10° ESE visible
23 Apr 2.8 04:52:40 10° NW 04:59:40 61° WSW 05:07:04 10° SSE visible
23 Apr 4.7 20:13:43 10° W 20:18:15 25° NW 20:23:05 10° N visible
24 Apr 5.5 01:52:03 10° NNE 01:54:43 12° NE 01:57:27 10° ENE visible
24 Apr 3.4 03:37:52 10° NNW 03:44:45 56° NE 03:52:05 10° SE visible
24 Apr 3.6 05:27:09 10° NW 05:33:04 28° WSW 05:39:14 10° SSW visible
24 Apr 5.3 20:50:32 10° WNW 20:52:44 12° NW 20:55:00 10° NNW visible
25 Apr 4.8 02:23:52 10° N 02:29:19 24° NE 02:35:03 10° E visible
25 Apr 2.7 04:11:25 10° NW 04:18:29 74° WSW 04:26:01 10° SSE visible
26 Apr 5.5 01:12:22 10° NNE 01:13:13 10° NE 01:14:04 10° NE visible
26 Apr 3.7 02:56:46 10° NNW 03:03:29 46° NE 03:10:38 10° SE visible
26 Apr 3.4 04:45:38 10° NW 04:51:58 34° WSW 04:58:35 10° S visible
26 Apr 5.2 20:08:13 10° WNW 20:11:17 15° NW 20:14:29 10° N visible
27 Apr 4.9 01:42:59 10° N 01:47:56 20° NE 01:53:07 10° E visible
27 Apr 2.7 03:30:11 10° NNW 03:37:18 88° WSW 03:44:52 10° SSE visible
27 Apr 4.2 05:21:30 10° WNW 05:25:10 15° WSW 05:28:55 10° SW visible
28 Apr 3.9 02:15:43 10° NNW 02:22:12 39° NE 02:29:05 10° ESE visible
28 Apr 3.1 04:04:12 10° NW 04:10:50 42° WSW 04:14:22 27° SSW visible
